Weather History for Key West, FL

Change the Weather History Date:

Tuesday, November 26, 2013

  Actual Average Record
Temperature  
Mean Temperature 78 °F 74 °F  
Max Temperature 82 °F 79 °F 85 °F (1992)
Min Temperature 74 °F 70 °F 56 °F (1950)
Degree Days  
Heating Degree Days 0 0  
Month to date heating degree days 0 0  
Since 1 July heating degree days 0 0  
Cooling Degree Days 13 9  
Month to date cooling degree days 351 289  
Year to date cooling degree days 4737 4497  
Growing Degree Days 26 (Base 50)    
Moisture  
Dew Point 73 °F    
Average Humidity 80    
Maximum Humidity 85    
Minimum Humidity 74    
Precipitation  
Precipitation 0.31 in 0.08 in 0.78 in (2010)
Month to date precipitation 2.83 1.99  
Year to date precipitation 44.18 37.30  
Snow  
Snow 0.00 in - - ()
Month to date snowfall 0.0  
Since 1 July snowfall 0.0  
Since 1 September snowfall 0.0  
Snow Depth 0.00 in    
Sea Level Pressure  
Sea Level Pressure 29.92 in    
Wind  
Wind Speed 14 mph (South)    
Max Wind Speed 28 mph    
Max Gust Speed 37 mph    
Visibility 9 miles    
Events Rain , Thunderstorm    
T = Trace of Precipitation, MM = Missing Value Source: NWS Daily Summary

Daily Weather History Graph

Daily Weather History Graph

Search for Another Location

Airport:

Trip Planner

Search our weather history database for the weather conditions in past years. The results will help you decide how hot, cold, wet, or windy it might be!

Date:

Astronomy

Nov. 26, 2013 Rise Set
Actual Time 6:50 AM EST 5:37 PM EST
Civil Twilight 6:26 AM EST 6:02 PM EST
Nautical Twilight 5:58 AM EST 6:30 PM EST
Astronomical Twilight 5:30 AM EST 6:57 PM EST
Moon 12:33 AM EST (11/26) 1:06 PM EST (11/26)
Length of Visible Light 11h 35m
Length of Day
10h 47m
Last Quarter, 41% of the Moon is Illuminated
Nov 26
Last Quarter
Dec 2
New
Dec 9
First Quarter
Dec 17
Full
Dec 25
Last Quarter

Hourly Weather History & Observations

Time (EST) Temp. Heat Index Dew Point Humidity Pressure Visibility Wind Dir Wind Speed Gust Speed Precip Events Conditions
12:53 AM 77.0 °F - 71.1 °F 82% 29.99 in 10.0 mi ESE 18.4 mph 25.3 mph N/A   Mostly Cloudy
1:53 AM 77.0 °F - 70.0 °F 79% 29.97 in 10.0 mi ESE 16.1 mph 26.5 mph N/A   Partly Cloudy
2:53 AM 77.0 °F - 70.0 °F 79% 29.96 in 10.0 mi ESE 17.3 mph - N/A   Scattered Clouds
3:53 AM 78.1 °F - 70.0 °F 76% 29.96 in 10.0 mi ESE 17.3 mph - N/A   Partly Cloudy
4:53 AM 78.1 °F - 70.0 °F 76% 29.96 in 10.0 mi SE 16.1 mph - N/A   Partly Cloudy
5:53 AM 78.1 °F - 71.1 °F 79% 29.96 in 10.0 mi SE 12.7 mph - N/A   Scattered Clouds
6:53 AM 79.0 °F - 72.0 °F 79% 29.96 in 10.0 mi SE 13.8 mph - N/A   Scattered Clouds
7:53 AM 78.1 °F - 72.0 °F 81% 29.97 in 10.0 mi SE 16.1 mph 21.9 mph 0.02 in Rain Light Rain
8:53 AM 80.1 °F 84.2 °F 73.0 °F 79% 29.97 in 10.0 mi SE 13.8 mph - 0.01 in   Mostly Cloudy
9:53 AM 80.1 °F 84.5 °F 73.9 °F 81% 29.98 in 10.0 mi SE 17.3 mph 21.9 mph N/A   Partly Cloudy
10:53 AM 79.0 °F - 73.0 °F 82% 29.96 in 10.0 mi SE 8.1 mph - 0.00 in Rain Light Rain
11:53 AM 82.0 °F 87.9 °F 73.9 °F 76% 29.95 in 10.0 mi SSE 16.1 mph - 0.00 in   Partly Cloudy
12:53 PM 82.0 °F 87.9 °F 73.9 °F 76% 29.90 in 10.0 mi SSE 16.1 mph 24.2 mph N/A   Clear
1:53 PM 81.0 °F 85.8 °F 73.0 °F 77% 29.88 in 10.0 mi SSE 15.0 mph 21.9 mph N/A   Partly Cloudy
2:53 PM 82.0 °F 87.4 °F 73.0 °F 74% 29.87 in 10.0 mi South 12.7 mph - N/A   Clear
3:53 PM 81.0 °F 86.2 °F 73.9 °F 79% 29.85 in 10.0 mi South 11.5 mph - N/A   Clear
4:53 PM 81.0 °F 86.2 °F 73.9 °F 79% 29.85 in 10.0 mi South 10.4 mph - N/A   Clear
5:53 PM 80.1 °F 84.5 °F 73.9 °F 81% 29.86 in 10.0 mi South 10.4 mph - N/A   Clear
6:53 PM 80.1 °F 84.5 °F 73.9 °F 81% 29.86 in 10.0 mi South 9.2 mph - N/A   Clear
7:53 PM 80.1 °F 85.1 °F 75.0 °F 85% 29.87 in 10.0 mi South 11.5 mph - N/A   Partly Cloudy
8:53 PM 81.0 °F 86.2 °F 73.9 °F 79% 29.87 in 10.0 mi SSW 11.5 mph - N/A   Partly Cloudy
9:53 PM 80.1 °F 84.5 °F 73.9 °F 81% 29.88 in 10.0 mi SSW 17.3 mph - N/A   Mostly Cloudy
10:43 PM 75.9 °F - 72.0 °F 87% 29.90 in 5.0 mi WSW 27.6 mph 36.8 mph 0.00 in Rain , Thunderstorm Light Thunderstorms and Rain
10:47 PM 75.2 °F - 71.6 °F 89% 29.89 in 1.8 mi WSW 23.0 mph 36.8 mph 0.02 in Rain , Thunderstorm Heavy Thunderstorms and Rain
10:53 PM 75.0 °F - 72.0 °F 90% 29.89 in 1.5 mi WSW 18.4 mph 25.3 mph 0.15 in Rain , Thunderstorm Heavy Thunderstorms and Rain
10:57 PM 75.0 °F - 72.0 °F 90% 29.89 in 3.0 mi SW 16.1 mph 25.3 mph 0.02 in Rain , Thunderstorm Thunderstorms and Rain
11:29 PM 75.9 °F - 71.1 °F 85% 29.89 in 10.0 mi SSW 13.8 mph - 0.03 in Rain , Thunderstorm Light Rain
11:48 PM 75.2 °F - 73.4 °F 94% 29.89 in 8.0 mi WSW 12.7 mph - 0.06 in Rain , Thunderstorm Light Thunderstorms and Rain
11:53 PM 75.0 °F - 73.0 °F 94% 29.90 in 4.0 mi West 9.2 mph - 0.09 in Rain , Thunderstorm Heavy Thunderstorms and Rain